OMD208 KFLL-KMZJ

Flight info

Callsign OMD208
Flight time 4h 33m
Altitude 38000
Route BNICE2 DOLIE Y280 LEV J86 ELP J2 TUS
Aircraft A321/M-SDE3FGHIRWY/LB1

Departure

Time 2026-05-07 08:57
Airport Fort Lauderdale Hollywood International Airport (KFLL)

Arrival

Time 2026-05-07 13:31
Airport Pinal Airpark (KMZJ)
Time Latitude Longitude Altitude Speed Heading
2026-05-07 08:40 26.06888 -80.15565 -3 ft 0 kts 39°
2026-05-07 08:53 26.06902 -80.15551 17 ft 6 kts 44°
2026-05-07 08:53 26.06927 -80.15484 16 ft 12 kts 86°
2026-05-07 08:54 26.06917 -80.15389 16 ft 12 kts 96°
2026-05-07 08:54 26.06890 -80.15302 16 ft 10 kts 165°
2026-05-07 08:54 26.06816 -80.15305 16 ft 10 kts 177°
2026-05-07 08:54 26.06769 -80.15345 16 ft 10 kts 259°
2026-05-07 08:55 26.06769 -80.15431 16 ft 12 kts 271°
2026-05-07 08:55 26.06753 -80.15525 18 ft 13 kts 215°
2026-05-07 08:55 26.06699 -80.15571 16 ft 10 kts 265°
2026-05-07 08:55 26.06697 -80.15652 16 ft 12 kts 269°
2026-05-07 08:56 26.06698 -80.15752 16 ft 14 kts 271°
2026-05-07 08:56 26.06653 -80.15823 16 ft 13 kts 184°
2026-05-07 08:56 26.06588 -80.15785 20 ft 9 kts 97°
2026-05-07 08:56 26.06589 -80.15732 20 ft 9 kts 90°
2026-05-07 08:57 26.06586 -80.15391 22 ft 86 kts 91°
2026-05-07 08:57 26.06580 -80.14453 62 ft 149 kts 90°
2026-05-07 08:57 26.06571 -80.13258 638 ft 160 kts 90°
2026-05-07 08:57 26.06584 -80.11983 1307 ft 169 kts 89°
2026-05-07 08:58 26.06821 -80.10654 1719 ft 188 kts 65°
2026-05-07 08:58 26.07570 -80.09358 1947 ft 211 kts 57°
2026-05-07 08:58 26.08442 -80.07920 2164 ft 238 kts 52°
2026-05-07 08:58 26.09838 -80.06797 2628 ft 260 kts 21°
2026-05-07 08:59 26.11560 -80.06104 3442 ft 266 kts 19°
2026-05-07 08:59 26.13305 -80.05407 4298 ft 271 kts 19°
2026-05-07 08:59 26.15142 -80.04861 5145 ft 276 kts
2026-05-07 08:59 26.17019 -80.05166 5975 ft 278 kts 340°
2026-05-07 09:00 26.18854 -80.05879 6853 ft 280 kts 340°
2026-05-07 09:00 26.20664 -80.06766 7717 ft 282 kts 329°
2026-05-07 09:00 26.22188 -80.08147 8532 ft 286 kts 314°
2026-05-07 09:00 26.23348 -80.09965 8883 ft 290 kts 298°
2026-05-07 09:01 26.24113 -80.12045 9000 ft 291 kts 293°
2026-05-07 09:01 26.24850 -80.14157 9624 ft 293 kts 293°
2026-05-07 09:01 26.25510 -80.16338 10229 ft 307 kts 285°
2026-05-07 09:01 26.25889 -80.18777 10424 ft 331 kts 281°
2026-05-07 09:02 26.26258 -80.21393 10573 ft 355 kts 281°
2026-05-07 09:02 26.26654 -80.24200 10704 ft 377 kts 281°
2026-05-07 09:02 26.27074 -80.27161 10846 ft 396 kts 281°
2026-05-07 09:02 26.27510 -80.30221 11296 ft 403 kts 281°
2026-05-07 09:03 26.27951 -80.33331 11884 ft 408 kts 281°
2026-05-07 09:03 26.28393 -80.36463 12499 ft 412 kts 281°
2026-05-07 09:03 26.28840 -80.39629 13109 ft 416 kts 282°
2026-05-07 09:03 26.29292 -80.42822 13737 ft 419 kts 282°
2026-05-07 09:04 26.29750 -80.46050 14311 ft 423 kts 282°
2026-05-07 09:04 26.30210 -80.49296 14895 ft 425 kts 282°
2026-05-07 09:04 26.30669 -80.52562 15494 ft 427 kts 281°
2026-05-07 09:04 26.31125 -80.55841 16055 ft 429 kts 281°
2026-05-07 09:05 26.31585 -80.59133 16604 ft 431 kts 281°
2026-05-07 09:05 26.32048 -80.62445 17140 ft 433 kts 281°
2026-05-07 09:05 26.32515 -80.65770 17661 ft 435 kts 281°
2026-05-07 09:05 26.32982 -80.69104 18188 ft 437 kts 281°
2026-05-07 09:06 26.33454 -80.72457 18645 ft 439 kts 281°
2026-05-07 09:06 26.33918 -80.75782 19081 ft 440 kts 281°
2026-05-07 09:06 26.34385 -80.79161 19520 ft 441 kts 281°
2026-05-07 09:06 26.34853 -80.82543 19957 ft 442 kts 281°
2026-05-07 09:07 26.35323 -80.85934 20393 ft 443 kts 281°
2026-05-07 09:07 26.35792 -80.89332 20820 ft 444 kts 281°
2026-05-07 09:07 26.36264 -80.92749 21238 ft 445 kts 281°
2026-05-07 09:07 26.36747 -80.96159 21659 ft 446 kts 281°
2026-05-07 09:08 26.37233 -80.99577 22076 ft 447 kts 281°
2026-05-07 09:08 26.37731 -81.03005 22486 ft 448 kts 281°
2026-05-07 09:08 26.38250 -81.06439 22893 ft 449 kts 282°
2026-05-07 09:08 26.38782 -81.09884 23298 ft 451 kts 282°
2026-05-07 09:09 26.39318 -81.13332 23700 ft 452 kts 282°
2026-05-07 09:09 26.39853 -81.16790 24049 ft 453 kts 282°
2026-05-07 09:09 26.40385 -81.20264 24389 ft 455 kts 282°
2026-05-07 09:09 26.40912 -81.23741 24709 ft 456 kts 281°
2026-05-07 09:10 26.41441 -81.27242 25012 ft 458 kts 281°
2026-05-07 09:10 26.41972 -81.30749 25295 ft 459 kts 281°
2026-05-07 09:10 26.42754 -81.34208 25553 ft 459 kts 290°
2026-05-07 09:10 26.44111 -81.37422 25889 ft 457 kts 301°
2026-05-07 09:11 26.45299 -81.39356 26140 ft 457 kts 308°
2026-05-07 09:11 26.47482 -81.41925 26517 ft 457 kts 317°
2026-05-07 09:11 26.50058 -81.44000 26904 ft 458 kts 328°
2026-05-07 09:11 26.52867 -81.45689 27288 ft 458 kts 329°
2026-05-07 09:12 26.55677 -81.47354 27693 ft 457 kts 329°
2026-05-07 09:12 26.58479 -81.49014 28109 ft 456 kts 329°
2026-05-07 09:12 26.61275 -81.50673 28538 ft 455 kts 329°
2026-05-07 09:12 26.64071 -81.52332 28983 ft 453 kts 329°
2026-05-07 09:13 26.66842 -81.53981 29429 ft 451 kts 329°
2026-05-07 09:13 26.69611 -81.55637 29882 ft 450 kts 328°
2026-05-07 09:13 26.72373 -81.57291 30299 ft 449 kts 328°
2026-05-07 09:13 26.75128 -81.58937 30678 ft 448 kts 328°
2026-05-07 09:14 26.77867 -81.60572 31063 ft 446 kts 328°
2026-05-07 09:14 26.80599 -81.62204 31453 ft 444 kts 328°
2026-05-07 09:14 26.83324 -81.63835 31845 ft 443 kts 328°
2026-05-07 09:14 26.86034 -81.65457 32250 ft 441 kts 328°
2026-05-07 09:15 26.88739 -81.67075 32649 ft 440 kts 328°
2026-05-07 09:15 26.91432 -81.68684 33046 ft 438 kts 328°
2026-05-07 09:15 26.94116 -81.70288 33456 ft 437 kts 328°
2026-05-07 09:15 26.96790 -81.71889 33873 ft 435 kts 328°
2026-05-07 09:16 26.99453 -81.73484 34244 ft 433 kts 328°
2026-05-07 09:16 27.02075 -81.75056 34588 ft 432 kts 328°
2026-05-07 09:16 27.04717 -81.76644 34916 ft 431 kts 328°
2026-05-07 09:16 27.07360 -81.78231 35244 ft 430 kts 328°
2026-05-07 09:17 27.09992 -81.79808 35571 ft 429 kts 328°
2026-05-07 09:17 27.12621 -81.81386 35904 ft 428 kts 328°
2026-05-07 09:17 27.15277 -81.82986 36246 ft 427 kts 327°
2026-05-07 09:17 27.17859 -81.84546 36560 ft 426 kts 327°
2026-05-07 09:18 27.20471 -81.86123 36897 ft 425 kts 327°
2026-05-07 09:18 27.23072 -81.87707 37209 ft 424 kts 325°
2026-05-07 09:18 27.25439 -81.89631 37531 ft 417 kts 314°
2026-05-07 09:18 27.27380 -81.92013 37839 ft 412 kts 304°
2026-05-07 09:19 27.28863 -81.94749 38027 ft 410 kts 294°
2026-05-07 09:19 27.29838 -81.97757 38067 ft 410 kts 284°
2026-05-07 09:19 27.31011 -82.04035 38062 ft 410 kts 283°
2026-05-07 09:20 27.32180 -82.10315 38062 ft 410 kts 283°
2026-05-07 09:20 27.33360 -82.16593 38068 ft 410 kts 283°
2026-05-07 09:21 27.34534 -82.22871 38067 ft 410 kts 283°
2026-05-07 09:21 27.35692 -82.29151 38073 ft 411 kts 283°
2026-05-07 09:22 27.36858 -82.35468 38075 ft 411 kts 283°
2026-05-07 09:22 27.38024 -82.41771 38085 ft 412 kts 283°
2026-05-07 09:23 27.39187 -82.48078 38086 ft 412 kts 283°
2026-05-07 09:23 27.40345 -82.54389 38102 ft 412 kts 283°
2026-05-07 09:24 27.41502 -82.60663 38103 ft 412 kts 283°
2026-05-07 09:24 27.42687 -82.66970 38088 ft 412 kts 283°
2026-05-07 09:25 27.43871 -82.73284 38086 ft 412 kts 283°
2026-05-07 09:25 27.45045 -82.79602 38087 ft 412 kts 283°
2026-05-07 09:26 27.46215 -82.85917 38082 ft 412 kts 282°
2026-05-07 09:26 27.47383 -82.92240 38082 ft 412 kts 282°
2026-05-07 09:27 27.48547 -82.98562 38079 ft 412 kts 282°
2026-05-07 09:28 27.50290 -83.08056 38079 ft 413 kts 282°
2026-05-07 09:28 27.51451 -83.14388 38080 ft 413 kts 282°
2026-05-07 09:29 27.52615 -83.20727 38080 ft 413 kts 282°
2026-05-07 09:29 27.53766 -83.27024 38078 ft 413 kts 282°
2026-05-07 09:30 27.54911 -83.33364 38079 ft 413 kts 282°
2026-05-07 09:30 27.56058 -83.39713 38080 ft 413 kts 282°
2026-05-07 09:31 27.57205 -83.46064 38081 ft 414 kts 282°
2026-05-07 09:31 27.58355 -83.52420 38082 ft 414 kts 282°
2026-05-07 09:32 27.59498 -83.58772 38082 ft 414 kts 282°
2026-05-07 09:32 27.60635 -83.65135 38082 ft 414 kts 282°
2026-05-07 09:33 27.61773 -83.71496 38082 ft 414 kts 282°
2026-05-07 09:33 27.62907 -83.77864 38081 ft 414 kts 282°
2026-05-07 09:34 27.64048 -83.84230 38082 ft 414 kts 282°
2026-05-07 09:34 27.65172 -83.90604 38085 ft 414 kts 282°
2026-05-07 09:35 27.66292 -83.96976 38081 ft 414 kts 282°
2026-05-07 09:35 27.67424 -84.03357 38080 ft 414 kts 282°
2026-05-07 09:36 27.68551 -84.09738 38081 ft 414 kts 282°
2026-05-07 09:36 27.69668 -84.16113 38079 ft 414 kts 281°
2026-05-07 09:37 27.70781 -84.22493 38079 ft 414 kts 281°
2026-05-07 09:37 27.71887 -84.28873 38078 ft 414 kts 281°
2026-05-07 09:38 27.72998 -84.35249 38076 ft 414 kts 281°
2026-05-07 09:38 27.74099 -84.41585 38078 ft 414 kts 281°
2026-05-07 09:39 27.75195 -84.47968 38077 ft 414 kts 281°
2026-05-07 09:39 27.76300 -84.54349 38073 ft 414 kts 281°
2026-05-07 09:40 27.77401 -84.60739 38074 ft 414 kts 281°
2026-05-07 09:40 27.78501 -84.67121 38072 ft 414 kts 281°
2026-05-07 09:41 27.79593 -84.73514 38074 ft 414 kts 281°
2026-05-07 09:41 27.80668 -84.79905 38076 ft 414 kts 281°
2026-05-07 09:42 27.81752 -84.86290 38075 ft 414 kts 281°
2026-05-07 09:42 27.82840 -84.92675 38075 ft 414 kts 281°
2026-05-07 09:43 27.83923 -84.99065 38071 ft 414 kts 281°
2026-05-07 09:43 27.85003 -85.05448 38062 ft 414 kts 281°
2026-05-07 09:44 27.86075 -85.11842 38063 ft 414 kts 280°
2026-05-07 09:44 27.87142 -85.18244 38066 ft 415 kts 280°
2026-05-07 09:45 27.88217 -85.24660 38068 ft 415 kts 282°
2026-05-07 09:45 27.89965 -85.30887 38067 ft 416 kts 288°
2026-05-07 09:46 27.91828 -85.37036 38068 ft 416 kts 288°
2026-05-07 09:46 27.93699 -85.43233 38061 ft 416 kts 288°
2026-05-07 09:47 27.95571 -85.49436 38061 ft 417 kts 288°
2026-05-07 09:47 27.97451 -85.55646 38062 ft 417 kts 288°
2026-05-07 09:48 27.99325 -85.61866 38070 ft 417 kts 287°
2026-05-07 09:48 28.01185 -85.68085 38077 ft 417 kts 287°
2026-05-07 09:49 28.03041 -85.74294 38069 ft 416 kts 287°
2026-05-07 09:49 28.04891 -85.80495 38067 ft 415 kts 287°
2026-05-07 09:50 28.06740 -85.86686 38065 ft 415 kts 287°
2026-05-07 09:50 28.08593 -85.92878 38056 ft 415 kts 287°
2026-05-07 09:51 28.10442 -85.99073 38055 ft 415 kts 287°
2026-05-07 09:51 28.12282 -86.05262 38055 ft 415 kts 287°
2026-05-07 09:52 28.14118 -86.11466 38057 ft 415 kts 287°
2026-05-07 09:52 28.15935 -86.17621 38057 ft 414 kts 287°
2026-05-07 09:53 28.17778 -86.23853 38049 ft 415 kts 287°
2026-05-07 09:53 28.19611 -86.30056 38050 ft 415 kts 287°
2026-05-07 09:54 28.21428 -86.36222 38051 ft 415 kts 287°
2026-05-07 09:54 28.23254 -86.42432 38051 ft 415 kts 287°
2026-05-07 09:55 28.24767 -86.47602 38052 ft 415 kts 287°
2026-05-07 09:55 28.26586 -86.53819 38042 ft 415 kts 287°
2026-05-07 09:56 28.28405 -86.60032 38046 ft 415 kts 286°
2026-05-07 09:56 28.30221 -86.66263 38042 ft 416 kts 286°
2026-05-07 09:57 28.32034 -86.72496 38042 ft 416 kts 286°
2026-05-07 09:57 28.33860 -86.78726 38055 ft 415 kts 286°
2026-05-07 09:58 28.35680 -86.84938 38047 ft 415 kts 286°
2026-05-07 09:58 28.37498 -86.91158 38046 ft 415 kts 286°
2026-05-07 09:59 28.39317 -86.97377 38047 ft 414 kts 286°
2026-05-07 09:59 28.41121 -87.03586 38042 ft 414 kts 286°
2026-05-07 10:00 28.42916 -87.09791 38039 ft 413 kts 286°
2026-05-07 10:00 28.44714 -87.15988 38032 ft 413 kts 286°
2026-05-07 10:01 28.46510 -87.22187 38031 ft 413 kts 286°
2026-05-07 10:01 28.48303 -87.28391 38029 ft 413 kts 286°
2026-05-07 10:02 28.50092 -87.34597 38036 ft 413 kts 285°
2026-05-07 10:02 28.51873 -87.40807 38028 ft 413 kts 285°
2026-05-07 10:03 28.53655 -87.47017 38030 ft 413 kts 285°
2026-05-07 10:03 28.55422 -87.53185 38029 ft 413 kts 285°
2026-05-07 10:04 28.57200 -87.59399 38027 ft 412 kts 285°
2026-05-07 10:04 28.58968 -87.65607 38027 ft 413 kts 285°
2026-05-07 10:05 28.60738 -87.71821 38024 ft 413 kts 285°
2026-05-07 10:05 28.62514 -87.78050 38023 ft 413 kts 285°
2026-05-07 10:06 28.64276 -87.84264 38021 ft 412 kts 285°
2026-05-07 10:06 28.66033 -87.90478 38028 ft 412 kts 285°
2026-05-07 10:07 28.67785 -87.96673 38023 ft 411 kts 285°
2026-05-07 10:07 28.69531 -88.02861 38017 ft 410 kts 285°
2026-05-07 10:08 28.71271 -88.09045 38016 ft 409 kts 285°
2026-05-07 10:08 28.73005 -88.15223 38013 ft 409 kts 285°
2026-05-07 10:09 28.74739 -88.21395 38009 ft 409 kts 285°
2026-05-07 10:09 28.76461 -88.27534 38009 ft 409 kts 285°
2026-05-07 10:10 28.78189 -88.33718 38003 ft 409 kts 285°
2026-05-07 10:10 28.79913 -88.39904 38003 ft 409 kts 285°
2026-05-07 10:11 28.81638 -88.46103 38004 ft 410 kts 285°
2026-05-07 10:11 28.83364 -88.52305 37997 ft 410 kts 284°
2026-05-07 10:12 28.85086 -88.58508 37999 ft 410 kts 284°
2026-05-07 10:12 28.86803 -88.64715 37996 ft 410 kts 284°
2026-05-07 10:13 28.88487 -88.70892 37996 ft 410 kts 283°
2026-05-07 10:13 28.89920 -88.77174 37996 ft 409 kts 281°
2026-05-07 10:14 28.91189 -88.83496 37993 ft 408 kts 280°
2026-05-07 10:14 28.92483 -88.89809 37994 ft 409 kts 281°
2026-05-07 10:15 28.93819 -88.96117 37987 ft 409 kts 281°
2026-05-07 10:15 28.95163 -89.02431 37988 ft 409 kts 281°
2026-05-07 10:16 28.96500 -89.08747 37995 ft 409 kts 281°
2026-05-07 10:16 28.97829 -89.15049 37988 ft 408 kts 281°
2026-05-07 10:17 28.99153 -89.21341 37987 ft 407 kts 281°
2026-05-07 10:17 29.00482 -89.27625 37985 ft 407 kts 280°
2026-05-07 10:18 29.01788 -89.33884 37982 ft 407 kts 280°
2026-05-07 10:18 29.03092 -89.40168 37978 ft 407 kts 280°
2026-05-07 10:19 29.04398 -89.46457 37975 ft 407 kts 280°
2026-05-07 10:19 29.05704 -89.52749 37975 ft 407 kts 280°
2026-05-07 10:20 29.07012 -89.59045 37971 ft 407 kts 280°
2026-05-07 10:20 29.08318 -89.65348 37972 ft 407 kts 280°
2026-05-07 10:21 29.09619 -89.71651 37969 ft 408 kts 280°
2026-05-07 10:21 29.10917 -89.77966 37975 ft 408 kts 280°
2026-05-07 10:22 29.12211 -89.84287 37975 ft 408 kts 280°
2026-05-07 10:22 29.13508 -89.90608 37980 ft 408 kts 280°
2026-05-07 10:23 29.14795 -89.96923 37978 ft 407 kts 280°
2026-05-07 10:23 29.16074 -90.03240 37981 ft 407 kts 280°
2026-05-07 10:24 29.17355 -90.09557 37982 ft 407 kts 280°
2026-05-07 10:24 29.18534 -90.15887 37982 ft 407 kts 278°
2026-05-07 10:25 29.19580 -90.22253 37984 ft 407 kts 277°
2026-05-07 10:25 29.20607 -90.28589 37986 ft 407 kts 278°
2026-05-07 10:26 29.21669 -90.34955 37984 ft 407 kts 278°
2026-05-07 10:26 29.22750 -90.41328 37992 ft 407 kts 278°
2026-05-07 10:27 29.23819 -90.47693 37980 ft 407 kts 278°
2026-05-07 10:27 29.24880 -90.54061 37997 ft 407 kts 278°
2026-05-07 10:28 29.25935 -90.60423 37984 ft 406 kts 278°
2026-05-07 10:28 29.26987 -90.66771 37974 ft 405 kts 278°
2026-05-07 10:29 29.28039 -90.73102 37973 ft 405 kts 278°
2026-05-07 10:29 29.29079 -90.79440 37978 ft 405 kts 277°
2026-05-07 10:30 29.30635 -90.88935 37969 ft 404 kts 277°
2026-05-07 10:30 29.31668 -90.95259 37962 ft 404 kts 277°
2026-05-07 10:31 29.32700 -91.01577 37965 ft 403 kts 277°
2026-05-07 10:31 29.33732 -91.07907 37962 ft 403 kts 277°
2026-05-07 10:32 29.34753 -91.14230 37964 ft 403 kts 277°
2026-05-07 10:32 29.35764 -91.20515 37965 ft 404 kts 277°
2026-05-07 10:33 29.36785 -91.26853 37967 ft 404 kts 277°
2026-05-07 10:33 29.37800 -91.33182 37965 ft 403 kts 277°
2026-05-07 10:34 29.38812 -91.39505 37958 ft 403 kts 277°
2026-05-07 10:34 29.39822 -91.45832 37958 ft 403 kts 277°
2026-05-07 10:35 29.40832 -91.52160 37959 ft 403 kts 277°
2026-05-07 10:35 29.41843 -91.58487 37967 ft 403 kts 277°
2026-05-07 10:36 29.42840 -91.64813 37964 ft 403 kts 276°
2026-05-07 10:36 29.43664 -91.70078 37956 ft 403 kts 277°
2026-05-07 10:37 29.44818 -91.77435 37952 ft 403 kts 276°
2026-05-07 10:37 29.45809 -91.83765 37947 ft 403 kts 276°
2026-05-07 10:38 29.46632 -91.89027 37947 ft 403 kts 276°
2026-05-07 10:38 29.47620 -91.95359 37958 ft 403 kts 276°
2026-05-07 10:39 29.48600 -92.01690 37952 ft 403 kts 276°
2026-05-07 10:39 29.49578 -92.08029 37938 ft 403 kts 276°
2026-05-07 10:40 29.50552 -92.14360 37945 ft 403 kts 276°
2026-05-07 10:40 29.51528 -92.20696 37945 ft 403 kts 276°
2026-05-07 10:41 29.52494 -92.27026 37960 ft 403 kts 276°
2026-05-07 10:41 29.53459 -92.33352 37964 ft 401 kts 276°
2026-05-07 10:42 29.54417 -92.39658 37953 ft 400 kts 276°
2026-05-07 10:42 29.55374 -92.45956 37948 ft 400 kts 276°
2026-05-07 10:43 29.56327 -92.52250 37949 ft 400 kts 276°
2026-05-07 10:43 29.57268 -92.58544 37945 ft 400 kts 275°
2026-05-07 10:44 29.58206 -92.64831 37942 ft 399 kts 275°
2026-05-07 10:44 29.59149 -92.71123 37954 ft 399 kts 275°
2026-05-07 10:45 29.60089 -92.77406 37948 ft 399 kts 275°
2026-05-07 10:45 29.61022 -92.83686 37948 ft 399 kts 275°
2026-05-07 10:46 29.61954 -92.89972 37946 ft 398 kts 275°
2026-05-07 10:46 29.62876 -92.96214 37940 ft 398 kts 275°
2026-05-07 10:47 29.63801 -93.02493 37941 ft 398 kts 275°
2026-05-07 10:47 29.64720 -93.08770 37951 ft 398 kts 275°
2026-05-07 10:48 29.65637 -93.15055 37941 ft 398 kts 275°
2026-05-07 10:48 29.66546 -93.21333 37939 ft 398 kts 275°
2026-05-07 10:49 29.67450 -93.27608 37942 ft 398 kts 275°
2026-05-07 10:49 29.68357 -93.33887 37940 ft 398 kts 275°
2026-05-07 10:50 29.69264 -93.40160 37933 ft 398 kts 275°
2026-05-07 10:50 29.70168 -93.46439 37935 ft 398 kts 275°
2026-05-07 10:51 29.71056 -93.52673 37924 ft 398 kts 275°
2026-05-07 10:51 29.71946 -93.58956 37925 ft 398 kts 275°
2026-05-07 10:52 29.72837 -93.65237 37925 ft 398 kts 275°
2026-05-07 10:52 29.73727 -93.71513 37924 ft 398 kts 275°
2026-05-07 10:53 29.74615 -93.77799 37927 ft 398 kts 275°
2026-05-07 10:53 29.75496 -93.84083 37928 ft 397 kts 274°
2026-05-07 10:54 29.76377 -93.90363 37923 ft 397 kts 274°
2026-05-07 10:54 29.77249 -93.96627 37899 ft 394 kts 274°
2026-05-07 10:55 29.78112 -94.02831 37919 ft 392 kts 274°
2026-05-07 10:55 29.78971 -94.09033 37904 ft 392 kts 274°
2026-05-07 10:56 29.79820 -94.15200 37905 ft 393 kts 274°
2026-05-07 10:56 29.80678 -94.21408 37924 ft 393 kts 274°
2026-05-07 10:57 29.81531 -94.27618 37919 ft 392 kts 274°
2026-05-07 10:57 29.82375 -94.33817 37915 ft 392 kts 274°
2026-05-07 10:58 29.83216 -94.40019 37915 ft 392 kts 274°
2026-05-07 10:58 29.84055 -94.46222 37912 ft 392 kts 274°
2026-05-07 10:59 29.84896 -94.52419 37911 ft 391 kts 274°
2026-05-07 10:59 29.85730 -94.58611 37922 ft 391 kts 274°
2026-05-07 11:00 29.86556 -94.64814 37912 ft 391 kts 274°
2026-05-07 11:00 29.87387 -94.71018 37909 ft 391 kts 274°
2026-05-07 11:01 29.88201 -94.77183 37907 ft 391 kts 274°
2026-05-07 11:01 29.89028 -94.83424 37906 ft 392 kts 274°
2026-05-07 11:02 29.89845 -94.89586 37905 ft 392 kts 274°
2026-05-07 11:02 29.90664 -94.95792 37911 ft 392 kts 274°
2026-05-07 11:03 29.91476 -95.01988 37907 ft 390 kts 274°
2026-05-07 11:03 29.92284 -95.08175 37906 ft 390 kts 274°
2026-05-07 11:04 29.93088 -95.14354 37906 ft 390 kts 274°
2026-05-07 11:04 29.93889 -95.20526 37896 ft 388 kts 274°
2026-05-07 11:05 29.94684 -95.26681 37898 ft 388 kts 274°
2026-05-07 11:05 29.95473 -95.32836 37891 ft 388 kts 274°
2026-05-07 11:06 29.96327 -95.38988 37902 ft 389 kts 275°
2026-05-07 11:06 29.97349 -95.45121 37898 ft 389 kts 276°
2026-05-07 11:07 29.98379 -95.51247 37901 ft 388 kts 275°
2026-05-07 11:07 29.99367 -95.57369 37904 ft 388 kts 275°
2026-05-07 11:08 30.00336 -95.63456 37881 ft 383 kts 275°
2026-05-07 11:08 30.01282 -95.69453 37855 ft 382 kts 275°
2026-05-07 11:09 30.02235 -95.75488 37864 ft 382 kts 275°
2026-05-07 11:09 30.03187 -95.81524 37842 ft 382 kts 275°
2026-05-07 11:10 30.04135 -95.87555 37841 ft 382 kts 275°
2026-05-07 11:10 30.05085 -95.93589 37835 ft 382 kts 275°
2026-05-07 11:11 30.06031 -95.99629 37801 ft 382 kts 275°
2026-05-07 11:11 30.06970 -96.05665 37783 ft 382 kts 275°
2026-05-07 11:12 30.07910 -96.11704 37761 ft 382 kts 274°
2026-05-07 11:12 30.08841 -96.17729 37738 ft 381 kts 274°
2026-05-07 11:13 30.09767 -96.23748 37734 ft 380 kts 274°
2026-05-07 11:13 30.10694 -96.29762 37760 ft 380 kts 274°
2026-05-07 11:14 30.11615 -96.35770 37761 ft 380 kts 274°
2026-05-07 11:14 30.12530 -96.41749 37782 ft 380 kts 274°
2026-05-07 11:15 30.13448 -96.47758 37776 ft 380 kts 274°
2026-05-07 11:15 30.14365 -96.53758 37774 ft 380 kts 274°
2026-05-07 11:16 30.15281 -96.59784 37823 ft 380 kts 274°
2026-05-07 11:16 30.16188 -96.65802 37864 ft 380 kts 274°
2026-05-07 11:17 30.17097 -96.71828 37914 ft 380 kts 274°
2026-05-07 11:17 30.18001 -96.77849 37947 ft 380 kts 274°
2026-05-07 11:18 30.18900 -96.83861 37980 ft 380 kts 274°
2026-05-07 11:18 30.19793 -96.89877 38016 ft 379 kts 274°
2026-05-07 11:19 30.20681 -96.95887 38011 ft 379 kts 274°
2026-05-07 11:19 30.21569 -97.01894 37997 ft 378 kts 273°
2026-05-07 11:20 30.22445 -97.07855 37989 ft 375 kts 273°
2026-05-07 11:20 30.23326 -97.13810 37974 ft 376 kts 273°
2026-05-07 11:21 30.24199 -97.19770 37925 ft 376 kts 273°
2026-05-07 11:21 30.25064 -97.25704 37927 ft 376 kts 273°
2026-05-07 11:22 30.25935 -97.31672 37951 ft 377 kts 273°
2026-05-07 11:22 30.26810 -97.37638 37952 ft 376 kts 273°
2026-05-07 11:23 30.27673 -97.43611 37950 ft 376 kts 273°
2026-05-07 11:23 30.28386 -97.48573 37949 ft 376 kts 273°
2026-05-07 11:24 30.29252 -97.54580 37948 ft 376 kts 273°
2026-05-07 11:24 30.30106 -97.60510 37982 ft 376 kts 272°
2026-05-07 11:25 30.30956 -97.66479 37979 ft 376 kts 272°
2026-05-07 11:25 30.31802 -97.72449 37977 ft 376 kts 272°
2026-05-07 11:26 30.32651 -97.78429 37980 ft 376 kts 272°
2026-05-07 11:26 30.33501 -97.84412 37980 ft 377 kts 272°
2026-05-07 11:27 30.34345 -97.90403 37971 ft 377 kts 272°
2026-05-07 11:27 30.35189 -97.96391 37973 ft 377 kts 272°
2026-05-07 11:28 30.36027 -98.02387 37969 ft 377 kts 272°
2026-05-07 11:28 30.36868 -98.08387 37958 ft 378 kts 272°
2026-05-07 11:29 30.37704 -98.14396 37964 ft 378 kts 272°
2026-05-07 11:29 30.38533 -98.20409 38014 ft 378 kts 272°
2026-05-07 11:30 30.39367 -98.26430 38023 ft 378 kts 272°
2026-05-07 11:30 30.40191 -98.32450 38032 ft 378 kts 272°
2026-05-07 11:31 30.41014 -98.38456 38035 ft 378 kts 272°
2026-05-07 11:31 30.41838 -98.44481 37949 ft 378 kts 272°
2026-05-07 11:32 30.43069 -98.53483 37960 ft 379 kts 272°
2026-05-07 11:33 30.43884 -98.59517 37964 ft 379 kts 272°
2026-05-07 11:33 30.44693 -98.65555 37963 ft 379 kts 272°
2026-05-07 11:34 30.45507 -98.71600 37971 ft 380 kts 272°
2026-05-07 11:34 30.46328 -98.77654 37973 ft 380 kts 271°
2026-05-07 11:35 30.47140 -98.83706 37973 ft 380 kts 271°
2026-05-07 11:35 30.47937 -98.89760 37969 ft 380 kts 271°
2026-05-07 11:36 30.48734 -98.95810 37968 ft 380 kts 271°
2026-05-07 11:36 30.49539 -99.01867 37970 ft 380 kts 271°
2026-05-07 11:37 30.50334 -99.07924 37972 ft 380 kts 271°
2026-05-07 11:37 30.51125 -99.13978 37964 ft 380 kts 271°
2026-05-07 11:38 30.51913 -99.20042 37975 ft 380 kts 271°
2026-05-07 11:38 30.52699 -99.26065 37967 ft 380 kts 271°
2026-05-07 11:39 30.53483 -99.32123 37952 ft 379 kts 271°
2026-05-07 11:39 30.54259 -99.38171 37961 ft 379 kts 271°
2026-05-07 11:40 30.55039 -99.44227 37972 ft 379 kts 271°
2026-05-07 11:40 30.55821 -99.50279 37996 ft 379 kts 271°
2026-05-07 11:41 30.56594 -99.56325 37996 ft 379 kts 271°
2026-05-07 11:41 30.57365 -99.62371 38018 ft 379 kts 271°
2026-05-07 11:42 30.58140 -99.68414 38022 ft 379 kts 271°
2026-05-07 11:42 30.58903 -99.74461 38029 ft 378 kts 271°
2026-05-07 11:43 30.59659 -99.80493 38023 ft 376 kts 271°
2026-05-07 11:43 30.60400 -99.86479 38031 ft 374 kts 270°
2026-05-07 11:44 30.61135 -99.92442 38009 ft 373 kts 270°
2026-05-07 11:44 30.61875 -99.98402 37987 ft 373 kts 270°
2026-05-07 11:45 30.62604 -100.04356 37973 ft 373 kts 270°
2026-05-07 11:45 30.63334 -100.10314 37957 ft 373 kts 270°
2026-05-07 11:46 30.64063 -100.16271 37942 ft 373 kts 270°
2026-05-07 11:46 30.64790 -100.22228 37957 ft 372 kts 270°
2026-05-07 11:47 30.65506 -100.28143 37947 ft 372 kts 270°
2026-05-07 11:47 30.66222 -100.34090 37975 ft 372 kts 270°
2026-05-07 11:48 30.66941 -100.40033 37996 ft 371 kts 270°
2026-05-07 11:48 30.67651 -100.45984 38012 ft 371 kts 270°
2026-05-07 11:49 30.68362 -100.51924 38021 ft 371 kts 270°
2026-05-07 11:49 30.69066 -100.57866 38038 ft 371 kts 270°
2026-05-07 11:50 30.69766 -100.63805 38038 ft 371 kts 270°
2026-05-07 11:50 30.70465 -100.69710 38033 ft 371 kts 270°
2026-05-07 11:51 30.71166 -100.75654 38019 ft 371 kts 270°
2026-05-07 11:51 30.71857 -100.81602 38005 ft 371 kts 270°
2026-05-07 11:52 30.72549 -100.87549 37983 ft 371 kts 270°
2026-05-07 11:52 30.73240 -100.93493 37979 ft 371 kts 270°
2026-05-07 11:53 30.73931 -100.99441 37991 ft 371 kts 270°
2026-05-07 11:53 30.74614 -101.05385 38009 ft 371 kts 270°
2026-05-07 11:54 30.75296 -101.11333 38026 ft 371 kts 270°
2026-05-07 11:54 30.75983 -101.17283 38057 ft 371 kts 270°
2026-05-07 11:55 30.76653 -101.23155 38018 ft 367 kts 269°
2026-05-07 11:55 30.77313 -101.29038 37917 ft 367 kts 269°
2026-05-07 11:56 30.77971 -101.34930 37904 ft 367 kts 269°
2026-05-07 11:56 30.78630 -101.40831 37905 ft 368 kts 269°
2026-05-07 11:57 30.79295 -101.46732 37900 ft 368 kts 269°
2026-05-07 11:57 30.79956 -101.52639 37904 ft 368 kts 269°
2026-05-07 11:58 30.80610 -101.58545 37908 ft 368 kts 269°
2026-05-07 11:58 30.81261 -101.64461 37895 ft 369 kts 269°
2026-05-07 11:59 30.81915 -101.70380 37853 ft 369 kts 269°
2026-05-07 11:59 30.82564 -101.76320 37839 ft 371 kts 269°
2026-05-07 12:00 30.83213 -101.82296 37846 ft 373 kts 269°
2026-05-07 12:00 30.83862 -101.88282 37858 ft 373 kts 269°
2026-05-07 12:01 30.84507 -101.94282 37858 ft 374 kts 269°
2026-05-07 12:01 30.85153 -102.00289 37864 ft 374 kts 269°
2026-05-07 12:02 30.85799 -102.06297 37897 ft 374 kts 269°
2026-05-07 12:02 30.86435 -102.12262 37883 ft 373 kts 269°
2026-05-07 12:03 30.87069 -102.18259 37879 ft 373 kts 269°
2026-05-07 12:03 30.87700 -102.24244 37871 ft 373 kts 269°
2026-05-07 12:04 30.88331 -102.30232 37870 ft 372 kts 269°
2026-05-07 12:04 30.88958 -102.36221 37867 ft 373 kts 269°
2026-05-07 12:05 30.89581 -102.42210 37932 ft 371 kts 268°
2026-05-07 12:05 30.90200 -102.48071 37836 ft 361 kts 268°
2026-05-07 12:06 30.90800 -102.53884 37856 ft 362 kts 268°
2026-05-07 12:06 30.91397 -102.59704 37917 ft 362 kts 268°
2026-05-07 12:07 30.91986 -102.65479 37937 ft 361 kts 268°
2026-05-07 12:07 30.92581 -102.71290 37960 ft 361 kts 268°
2026-05-07 12:08 30.93167 -102.77097 37991 ft 360 kts 268°
2026-05-07 12:08 30.93750 -102.82845 37979 ft 355 kts 268°
2026-05-07 12:08 30.93941 -102.84743 37852 ft 355 kts 268°
2026-05-07 12:09 30.94227 -102.87600 37853 ft 355 kts 268°
2026-05-07 12:09 30.94792 -102.93317 37858 ft 356 kts 268°
2026-05-07 12:10 30.95621 -102.99044 37858 ft 368 kts 277°
2026-05-07 12:10 30.97198 -103.04728 37854 ft 369 kts 277°
2026-05-07 12:11 30.98773 -103.10430 37856 ft 369 kts 277°
2026-05-07 12:11 31.00342 -103.16136 37878 ft 370 kts 276°
2026-05-07 12:12 31.01915 -103.21862 37865 ft 371 kts 276°
2026-05-07 12:12 31.03482 -103.27591 37856 ft 371 kts 276°
2026-05-07 12:13 31.05038 -103.33282 37844 ft 371 kts 276°
2026-05-07 12:13 31.06606 -103.39016 37857 ft 371 kts 276°
2026-05-07 12:14 31.08167 -103.44756 37870 ft 371 kts 276°
2026-05-07 12:14 31.09728 -103.50502 37877 ft 372 kts 276°
2026-05-07 12:15 31.11293 -103.56274 37855 ft 374 kts 276°
2026-05-07 12:15 31.12854 -103.62037 37854 ft 376 kts 276°
2026-05-07 12:16 31.14450 -103.67925 37860 ft 378 kts 276°
2026-05-07 12:16 31.16029 -103.73785 37860 ft 379 kts 276°
2026-05-07 12:17 31.17605 -103.79660 37874 ft 379 kts 276°
2026-05-07 12:17 31.19188 -103.85542 37866 ft 380 kts 276°
2026-05-07 12:18 31.20756 -103.91392 37822 ft 381 kts 277°
2026-05-07 12:18 31.22342 -103.97308 37838 ft 382 kts 277°
2026-05-07 12:19 31.23927 -104.03235 37846 ft 383 kts 277°
2026-05-07 12:19 31.25511 -104.09175 37866 ft 383 kts 277°
2026-05-07 12:20 31.27087 -104.15118 37870 ft 383 kts 276°
2026-05-07 12:20 31.28668 -104.21064 37866 ft 382 kts 277°
2026-05-07 12:21 31.30239 -104.26966 37874 ft 379 kts 276°
2026-05-07 12:21 31.31793 -104.32859 37872 ft 379 kts 276°
2026-05-07 12:22 31.33346 -104.38766 37879 ft 380 kts 276°
2026-05-07 12:22 31.34899 -104.44679 37881 ft 381 kts 276°
2026-05-07 12:23 31.36456 -104.50606 37885 ft 381 kts 276°
2026-05-07 12:23 31.38011 -104.56535 37889 ft 381 kts 276°
2026-05-07 12:24 31.39566 -104.62462 37892 ft 381 kts 276°
2026-05-07 12:24 31.41106 -104.68352 37889 ft 381 kts 276°
2026-05-07 12:25 31.42646 -104.74285 37899 ft 381 kts 276°
2026-05-07 12:25 31.44189 -104.80226 37890 ft 381 kts 276°
2026-05-07 12:26 31.45734 -104.86171 37889 ft 381 kts 276°
2026-05-07 12:26 31.47273 -104.92102 37922 ft 381 kts 276°
2026-05-07 12:27 31.48804 -104.98023 37891 ft 378 kts 276°
2026-05-07 12:27 31.50321 -105.03914 37893 ft 377 kts 276°
2026-05-07 12:28 31.51836 -105.09806 37893 ft 377 kts 276°
2026-05-07 12:28 31.53345 -105.15703 37895 ft 378 kts 276°
2026-05-07 12:29 31.54857 -105.21601 37897 ft 378 kts 276°
2026-05-07 12:29 31.56369 -105.27512 37901 ft 378 kts 276°
2026-05-07 12:30 31.57872 -105.33391 37890 ft 374 kts 276°
2026-05-07 12:30 31.59360 -105.39235 37892 ft 374 kts 276°
2026-05-07 12:31 31.60835 -105.45046 37892 ft 374 kts 276°
2026-05-07 12:31 31.62318 -105.50901 37900 ft 374 kts 276°
2026-05-07 12:32 31.63801 -105.56760 37901 ft 374 kts 276°
2026-05-07 12:32 31.65276 -105.62615 37922 ft 374 kts 276°
2026-05-07 12:33 31.67489 -105.71399 37921 ft 374 kts 275°
2026-05-07 12:33 31.68959 -105.77260 37912 ft 374 kts 275°
2026-05-07 12:34 31.70427 -105.83122 37914 ft 374 kts 275°
2026-05-07 12:34 31.71894 -105.88991 37910 ft 374 kts 275°
2026-05-07 12:35 31.73353 -105.94851 37890 ft 374 kts 275°
2026-05-07 12:35 31.74814 -106.00725 37898 ft 374 kts 275°
2026-05-07 12:36 31.76273 -106.06614 37913 ft 377 kts 275°
2026-05-07 12:36 31.77737 -106.12535 37951 ft 378 kts 275°
2026-05-07 12:37 31.79207 -106.18469 37979 ft 378 kts 275°
2026-05-07 12:37 31.80676 -106.24412 38009 ft 379 kts 275°
2026-05-07 12:38 31.81781 -106.30378 38024 ft 366 kts 266°
2026-05-07 12:38 31.82216 -106.36337 38052 ft 366 kts 266°
2026-05-07 12:39 31.82667 -106.42272 38030 ft 364 kts 266°
2026-05-07 12:39 31.83115 -106.48204 38026 ft 365 kts 266°
2026-05-07 12:40 31.83551 -106.54119 37997 ft 365 kts 266°
2026-05-07 12:40 31.83995 -106.60065 38051 ft 365 kts 266°
2026-05-07 12:41 31.84438 -106.66016 38059 ft 366 kts 266°
2026-05-07 12:41 31.84873 -106.71987 38077 ft 366 kts 266°
2026-05-07 12:42 31.85300 -106.77950 38074 ft 366 kts 266°
2026-05-07 12:42 31.85735 -106.83922 38054 ft 366 kts 266°
2026-05-07 12:43 31.86164 -106.89889 37887 ft 366 kts 266°
2026-05-07 12:43 31.86587 -106.95863 37896 ft 366 kts 266°
2026-05-07 12:44 31.87010 -107.01838 37892 ft 366 kts 266°
2026-05-07 12:44 31.87424 -107.07815 37887 ft 367 kts 266°
2026-05-07 12:45 31.87839 -107.13811 37889 ft 368 kts 266°
2026-05-07 12:45 31.88259 -107.19818 37898 ft 369 kts 266°
2026-05-07 12:46 31.88680 -107.25840 37895 ft 369 kts 266°
2026-05-07 12:46 31.89089 -107.31872 37899 ft 369 kts 266°
2026-05-07 12:47 31.89497 -107.37899 37906 ft 370 kts 266°
2026-05-07 12:47 31.89903 -107.43930 37908 ft 370 kts 266°
2026-05-07 12:48 31.90302 -107.49932 37915 ft 371 kts 266°
2026-05-07 12:48 31.90711 -107.55984 37914 ft 371 kts 266°
2026-05-07 12:49 31.91114 -107.62052 37964 ft 372 kts 266°
2026-05-07 12:49 31.91512 -107.68095 37929 ft 370 kts 266°
2026-05-07 12:50 31.91900 -107.74142 37913 ft 371 kts 266°
2026-05-07 12:50 31.92290 -107.80204 37931 ft 371 kts 267°
2026-05-07 12:51 31.92628 -107.85247 37926 ft 372 kts 267°
2026-05-07 12:51 31.93043 -107.91320 37930 ft 372 kts 267°
2026-05-07 12:52 31.93448 -107.97397 37933 ft 373 kts 267°
2026-05-07 12:52 31.93853 -108.03487 37938 ft 373 kts 267°
2026-05-07 12:53 31.94258 -108.09584 37940 ft 373 kts 267°
2026-05-07 12:53 31.94659 -108.15679 37943 ft 373 kts 267°
2026-05-07 12:54 31.95057 -108.21771 37948 ft 373 kts 266°
2026-05-07 12:54 31.95448 -108.27865 37947 ft 373 kts 266°
2026-05-07 12:55 31.95834 -108.33962 37946 ft 373 kts 266°
2026-05-07 12:55 31.96220 -108.40059 37966 ft 373 kts 266°
2026-05-07 12:56 31.96614 -108.46164 37959 ft 374 kts 266°
2026-05-07 12:56 31.96997 -108.52276 37955 ft 375 kts 266°
2026-05-07 12:57 31.97379 -108.58401 37947 ft 375 kts 266°
2026-05-07 12:57 31.97759 -108.64544 37948 ft 376 kts 266°
2026-05-07 12:58 31.98136 -108.70686 37957 ft 376 kts 266°
2026-05-07 12:58 31.98498 -108.76798 37953 ft 376 kts 266°
2026-05-07 12:59 31.98868 -108.82994 37956 ft 377 kts 266°
2026-05-07 12:59 31.99233 -108.89132 37956 ft 378 kts 266°
2026-05-07 13:00 31.99599 -108.95311 37956 ft 378 kts 266°
2026-05-07 13:00 31.99960 -109.01497 37960 ft 379 kts 266°
2026-05-07 13:01 32.00318 -109.07683 37959 ft 379 kts 266°
2026-05-07 13:01 32.00680 -109.13877 37958 ft 379 kts 267°
2026-05-07 13:02 32.01040 -109.20075 37952 ft 380 kts 266°
2026-05-07 13:02 32.01391 -109.26300 37953 ft 381 kts 267°
2026-05-07 13:03 32.01741 -109.32534 37951 ft 382 kts 266°
2026-05-07 13:03 32.02090 -109.38772 37961 ft 382 kts 266°
2026-05-07 13:04 32.02435 -109.45015 37963 ft 382 kts 266°
2026-05-07 13:04 32.02775 -109.51217 37978 ft 382 kts 266°
2026-05-07 13:05 32.03109 -109.57467 37969 ft 382 kts 266°
2026-05-07 13:05 32.03442 -109.63721 37963 ft 382 kts 266°
2026-05-07 13:06 32.03776 -109.69973 37963 ft 383 kts 266°
2026-05-07 13:06 32.04109 -109.76238 37962 ft 383 kts 266°
2026-05-07 13:07 32.04440 -109.82490 37486 ft 382 kts 266°
2026-05-07 13:07 32.04601 -109.85656 36386 ft 391 kts 266°
2026-05-07 13:07 32.04764 -109.88879 35349 ft 397 kts 266°
2026-05-07 13:08 32.04928 -109.92143 34374 ft 400 kts 266°
2026-05-07 13:08 32.05095 -109.95399 33566 ft 394 kts 266°
2026-05-07 13:08 32.05264 -109.98613 32523 ft 391 kts 266°
2026-05-07 13:08 32.05429 -110.01789 31468 ft 385 kts 266°
2026-05-07 13:09 32.05591 -110.04918 30464 ft 380 kts 266°
2026-05-07 13:09 32.05750 -110.08019 29377 ft 379 kts 266°
2026-05-07 13:09 32.05902 -110.11137 28242 ft 383 kts 267°
2026-05-07 13:09 32.06050 -110.14299 27162 ft 391 kts 268°
2026-05-07 13:10 32.06203 -110.17547 26131 ft 401 kts 269°
2026-05-07 13:10 32.06364 -110.20860 25098 ft 409 kts 270°
2026-05-07 13:10 32.06527 -110.24240 24090 ft 417 kts 271°
2026-05-07 13:10 32.06691 -110.27680 23030 ft 424 kts 272°
2026-05-07 13:11 32.06854 -110.31189 21881 ft 431 kts 272°
2026-05-07 13:11 32.07019 -110.34738 20780 ft 437 kts 272°
2026-05-07 13:11 32.07187 -110.38340 19725 ft 443 kts 272°
2026-05-07 13:11 32.07356 -110.41975 18707 ft 443 kts 272°
2026-05-07 13:12 32.07520 -110.45521 17635 ft 431 kts 272°
2026-05-07 13:12 32.07677 -110.48960 16841 ft 407 kts 272°
2026-05-07 13:12 32.07822 -110.52189 16313 ft 383 kts 272°
2026-05-07 13:12 32.07959 -110.55244 15784 ft 362 kts 272°
2026-05-07 13:13 32.08090 -110.58141 15277 ft 349 kts 272°
2026-05-07 13:13 32.08215 -110.60971 14778 ft 343 kts 271°
2026-05-07 13:13 32.08340 -110.63773 14456 ft 343 kts 272°
2026-05-07 13:13 32.08465 -110.66587 14204 ft 342 kts 272°
2026-05-07 13:14 32.08589 -110.69386 13953 ft 342 kts 272°
2026-05-07 13:14 32.08712 -110.72179 13691 ft 341 kts 272°
2026-05-07 13:14 32.08835 -110.75015 13405 ft 340 kts 272°
2026-05-07 13:14 32.08955 -110.77790 13098 ft 339 kts 272°
2026-05-07 13:15 32.09074 -110.80564 12661 ft 337 kts 272°
2026-05-07 13:15 32.09191 -110.83356 12227 ft 339 kts 271°
2026-05-07 13:15 32.09325 -110.86132 11808 ft 339 kts 275°
2026-05-07 13:15 32.09805 -110.88857 11391 ft 340 kts 286°
2026-05-07 13:16 32.10721 -110.91392 10988 ft 332 kts 297°
2026-05-07 13:16 32.11993 -110.93608 10572 ft 321 kts 309°
2026-05-07 13:16 32.13544 -110.95454 10175 ft 313 kts 320°
2026-05-07 13:16 32.15203 -110.97058 9813 ft 305 kts 324°
2026-05-07 13:17 32.17029 -110.98300 9420 ft 300 kts 333°
2026-05-07 13:17 32.18874 -110.99403 9044 ft 297 kts 334°
2026-05-07 13:17 32.20718 -111.00474 8665 ft 294 kts 336°
2026-05-07 13:17 32.22576 -111.01461 8281 ft 291 kts 335°
2026-05-07 13:18 32.24307 -111.02619 7911 ft 289 kts 329°
2026-05-07 13:18 32.26010 -111.03855 7540 ft 286 kts 329°
2026-05-07 13:18 32.27696 -111.05086 7159 ft 284 kts 329°
2026-05-07 13:18 32.29354 -111.06305 7014 ft 275 kts 329°
2026-05-07 13:19 32.30934 -111.07470 6986 ft 261 kts 329°
2026-05-07 13:19 32.32438 -111.08577 6954 ft 252 kts 329°
2026-05-07 13:19 32.33920 -111.09673 6938 ft 250 kts 329°
2026-05-07 13:19 32.35396 -111.10768 6942 ft 251 kts 329°
2026-05-07 13:20 32.36873 -111.11857 6851 ft 250 kts 329°
2026-05-07 13:20 32.38346 -111.12945 6752 ft 250 kts 329°
2026-05-07 13:20 32.39818 -111.14040 6653 ft 248 kts 329°
2026-05-07 13:20 32.41280 -111.15119 6551 ft 247 kts 329°
2026-05-07 13:21 32.42739 -111.16184 6396 ft 246 kts 329°
2026-05-07 13:21 32.44191 -111.17245 6255 ft 245 kts 329°
2026-05-07 13:21 32.45639 -111.18302 6104 ft 244 kts 329°
2026-05-07 13:21 32.47071 -111.19368 5951 ft 243 kts 325°
2026-05-07 13:22 32.48341 -111.20678 5813 ft 242 kts 316°
2026-05-07 13:22 32.49488 -111.22128 5661 ft 238 kts 314°
2026-05-07 13:22 32.50591 -111.23540 5530 ft 230 kts 314°
2026-05-07 13:22 32.51639 -111.24886 5374 ft 228 kts 314°
2026-05-07 13:23 32.52637 -111.26171 5235 ft 226 kts 314°
2026-05-07 13:23 32.53575 -111.27427 5087 ft 225 kts 311°
2026-05-07 13:23 32.54530 -111.28891 4941 ft 224 kts 309°
2026-05-07 13:23 32.55467 -111.30366 4795 ft 224 kts 309°
2026-05-07 13:24 32.56403 -111.31833 4669 ft 219 kts 309°
2026-05-07 13:24 32.57311 -111.33256 4611 ft 215 kts 309°
2026-05-07 13:24 32.58304 -111.34553 4503 ft 212 kts 321°
2026-05-07 13:24 32.59471 -111.35613 4425 ft 210 kts 326°
2026-05-07 13:25 32.60656 -111.36622 4419 ft 210 kts 326°
2026-05-07 13:25 32.61854 -111.37626 4411 ft 211 kts 326°
2026-05-07 13:25 32.63058 -111.38626 4410 ft 211 kts 326°
2026-05-07 13:25 32.64140 -111.39792 4401 ft 214 kts 307°
2026-05-07 13:26 32.64636 -111.41408 4395 ft 202 kts 278°
2026-05-07 13:26 32.64422 -111.43005 4354 ft 194 kts 250°
2026-05-07 13:26 32.63616 -111.44268 4226 ft 194 kts 220°
2026-05-07 13:26 32.62409 -111.44939 4067 ft 192 kts 191°
2026-05-07 13:27 32.61161 -111.44885 3990 ft 166 kts 165°
2026-05-07 13:27 32.60181 -111.44330 3865 ft 151 kts 142°
2026-05-07 13:27 32.59487 -111.43460 3618 ft 142 kts 122°
2026-05-07 13:27 32.58907 -111.42527 3380 ft 140 kts 123°
2026-05-07 13:28 32.58330 -111.41604 3161 ft 139 kts 122°
2026-05-07 13:28 32.57749 -111.40678 2990 ft 140 kts 121°
2026-05-07 13:28 32.57107 -111.39827 2892 ft 140 kts 133°
2026-05-07 13:28 32.56412 -111.39007 2789 ft 139 kts 133°
2026-05-07 13:29 32.55735 -111.38202 2654 ft 140 kts 134°
2026-05-07 13:29 32.55057 -111.37401 2575 ft 137 kts 134°
2026-05-07 13:29 32.54385 -111.36580 2456 ft 137 kts 134°
2026-05-07 13:29 32.53725 -111.35779 2366 ft 138 kts 134°
2026-05-07 13:30 32.53047 -111.34982 2235 ft 135 kts 135°
2026-05-07 13:30 32.52370 -111.34167 2097 ft 141 kts 137°
2026-05-07 13:30 32.51676 -111.33346 1934 ft 141 kts 137°
2026-05-07 13:30 32.51035 -111.32592 1887 ft 108 kts 135°
2026-05-07 13:31 32.50716 -111.32219 1898 ft 23 kts 135°
2026-05-07 13:31 32.50641 -111.32130 1899 ft 23 kts 135°
2026-05-07 13:31 32.50524 -111.31994 1895 ft 25 kts 135°
2026-05-07 13:31 32.50399 -111.31848 1890 ft 17 kts 136°
2026-05-07 13:32 32.50385 -111.31762 1891 ft 12 kts 51°
2026-05-07 13:32 32.50458 -111.31698 1898 ft 14 kts
2026-05-07 13:32 32.50539 -111.31762 1893 ft 11 kts 317°
2026-05-07 13:32 32.50566 -111.31792 1897 ft 0 kts 316°
2026-05-07 13:33 32.50567 -111.31792 1897 ft 1 kts 316°
2026-05-07 13:33 32.50583 -111.31812 1956 ft 8 kts 315°
2026-05-07 13:33 32.50638 -111.31877 1891 ft 12 kts 315°
2026-05-07 13:34 32.50700 -111.31902 1887 ft 11 kts 34°
2026-05-07 13:34 32.50730 -111.31869 1897 ft 0 kts 44°